ONEWEB-0050, 45453

Orbit data source: Space-Track

ONEWEB-0050, 45453 is a payload satellite owned by One Web (UK) in LEO that was launched on Sat, 21 Mar 2020 UTC via a SOYUZ-2-1B launch vehicle from the Tyuratam Missile And Space Complex (TTMTR). Payload-class satellites include a variety of spacecraft equipped with specific instruments for various scientific and technological missions. These include communications satellites like Starlink; space stations such as the ISS; scientific satellites like the Hubble; Earth observation satellites from companies like Planet Labs, Umbra, and HawkEye 360; GPS; miniature CubeSats for education and research; and military/defense satellites.

Loading next visibility...
Identifier
45453, 2020-020AF
Orbit
LEO
Country
Flag of UKUK
Related business
Manufacturer
One Web
Mission
Partially operational Commercial Communications
Bus & Motor
ARROW, Unknown motor
Mass
148 kg wet, ~140 kg dry
Launch date (UTC)
2020-03-21 (6 years ago)
Launch vehicle
SOYUZ-2-1B
Launch site
Tyuratam Missile And Space Complex (TTMTR)
Object type
Payload
Rocket body
Debris
Shape & HBR
Trap Box + 2 Pan, 6.7 m
Radar Cross Section
3.464 m², Large (>1 m²)

Expand to show TLE details & history
Last TLE update: 11 hours ago

TLE from 11 hours ago
0 ONEWEB-0050
1 45453U 20020AF  26035.51277399  .00002372  00000-0  24470-3 0  9998
2 45453  88.9193 251.2995 0005814  90.2118 269.9777 14.89867588320627
Epoch: 2026-02-04T12:18Z
TLE epoch observation values (Epoch: 2026-02-04T12:18:23.672Z)
Latitude
-0.00004°
Longitude
-67.97742°
Altitude
601.505 km
Speed
7.559 km/s
True Right ascension
16h 45m 11s
True Declination
0° 00' 00"
Sunlit
Object was in daylight at epoch
Visualization orbit readout
Latitude
Unknown
Longitude
Unknown
Altitude
Unknown
Speed
Unknown
Apparent Right ascension
Unknown
Apparent Declination
Unknown
Sunlit
N/A
Visualization observer readout
Local Sidereal Time
01:37:54
Azimuth
Unknown
Elevation
Unknown
Doppler factor
Unknown
Orbital elements
Apogee altitude
599.256 km
Perigee altitude
591.147 km
Semi-major axis
6,973.338 km
Eccentricity
0.00058
Inclination
88.9193°
RAAN
251.2995°
Arg. of periapsis
90.2118°
True anomaly
269.91108°
Mean anomaly
269.9777°
Eccentric anomaly
269.94439°
Mean motion
3.72719 °/min
Orbital period
96.59 mins
BSTAR
0.0002447
Loading maneuver chart data...
Computing Atmospheric mass density...
Loading historical data...
Loading historical data...
Loading historical data...
Loading historical data...
Loading historical data...
Loading historical data...
Loading historical data...

Documentation

Showing up to 5 results
|